Location: Brown Observing Site
(43.4354°N, 116.3366°W)
Time: 00:05:25
(UTC-07:00)

Envisat - Pass Details

Date: 26 October 2019
Orbit: 764 x 766 km, 98.1° (Epoch: 18 November)

Event Time Altitude Azimuth Distance (km) Brightness Sun altitude
Rises 21:07:22 0° 211° (SSW) 3,219 6.5 -26.4°
Reaches altitude 10° 21:10:33 10° 232° (SW) 2,298 6.0 -27.0°
Maximum altitude 21:13:38 16° 270° (W) 1,913 5.9 -27.5°
Drops below altitude 10° 21:16:44 10° 308° (NW) 2,308 6.2 -28.1°
Sets 21:19:58 0° 330° (NNW) 3,240 6.8 -28.7°
